Weather Service Report


268 
ASUS46 KPQR 260610
RWROR 

OREGON REGIONAL WEATHER ROUNDUP
NATIONAL WEATHER SERVICE PORTLAND OR
1000 PM PST TUE NOV 25 2014

NOTE: "FAIR" INDICATES FEW OR NO CLOUDS BELOW 12,000 FEET WITH
NO SIGNIFICANT WEATHER AND/OR OBSTRUCTIONS TO VISIBILITY.

ORZ001>013-260700-
NORTHWEST OREGON

  
CITY           SKY/WX    TMP DP  RH WIND       PRES   REMARKS
ASTORIA        CLOUDY    56  54  93 SW15G24   30.24S                  
6HR MIN TEMP:  56; 6HR MAX TEMP:  58; 6HR PCP: TRACE;                

NEWPORT        CLOUDY    54  54 100 S10       30.34S FOG              
PORTLAND       CLOUDY    58  54  86 S6        30.29S                  
6HR MIN TEMP:  58; 6HR MAX TEMP:  62;                                

VANCOUVER WA   CLOUDY    58  52  80 SE3       30.29R                  
6HR MIN TEMP:  58; 6HR MAX TEMP:  62;                                

SCAPPOOSE      CLOUDY    59  53  80 S5        30.26F                  
6HR MIN TEMP:  56; 6HR MAX TEMP:  59; 6HR PCP:  0.02;                

HILLSBORO      CLOUDY    57  53  86 S3        30.28R                  
6HR MIN TEMP:  57; 6HR MAX TEMP:  61;                                

AURORA         CLOUDY    58  53  84 S8        30.29F                  
6HR MIN TEMP:  57; 6HR MAX TEMP:  60;                                

MCMINNVILLE    CLOUDY    57  53  86 SW10      30.30S                  
6HR MIN TEMP:  53; 6HR MAX TEMP:  59;                                

SALEM          CLOUDY    58  53  84 S8        30.30S                  
6HR MIN TEMP:  58; 6HR MAX TEMP:  60;                                

CORVALLIS      CLOUDY    55  52  88 S6        30.32F                  
EUGENE         PTCLDY    52  48  86 S5        30.33S                  
6HR MIN TEMP:  52; 6HR MAX TEMP:  59;                                

$$

ORZ021-028-260700-
SOUTHWEST OREGON

  
CITY           SKY/WX    TMP DP  RH WIND       PRES   REMARKS
NORTH BEND     CLOUDY    54 N/A N/A CALM      30.34S VSB 1/4          
6HR MIN TEMP:  52; 6HR MAX TEMP:  61;                                

BROOKINGS      LGT RAIN  52  52 100 CALM      30.35R                  
ROSEBURG       CLEAR     50  47  89 CALM      30.34F                  
6HR MIN TEMP:  50; 6HR MAX TEMP:  60;                                

SEXTON SUMMIT  CLEAR     45  44  97 SE13      30.36F                  
6HR MIN TEMP:  45; 6HR MAX TEMP:  48;                                

MEDFORD        CLEAR     43  41  93 CALM      30.39S                  
6HR MIN TEMP:  43; 6HR MAX TEMP:  58;                                

$$

ORZ014>016-041-260700-
COLUMBIA GORGE

  
CITY           SKY/WX    TMP DP  RH WIND       PRES   REMARKS
TROUTDALE      CLOUDY    59  53  80 CALM      30.28S                  
6HR MIN TEMP:  59; 6HR MAX TEMP:  62;                                

THE DALLES     CLOUDY    60  50  69 NW8       30.22R                  
6HR MIN TEMP:  59; 6HR MAX TEMP:  61;                                

$$

ORZ029>031-041-044-049-050-061>064-502-503-505>511-260700-
EASTERN OREGON

  
CITY           SKY/WX    TMP DP  RH WIND       PRES   REMARKS
REDMOND        MOCLDY    40  37  89 S8        30.32F WCI  34          
6HR MIN TEMP:  36; 6HR MAX TEMP:  55;                                

BEND           MOCLDY    46  37  71 SW14      30.34S                  
PRINEVILLE     MOCLDY    39  37  93 SE5       30.34S                  
KLAMATH FALLS  CLEAR     32  30  92 CALM      30.41S                  
6HR MIN TEMP:  32; 6HR MAX TEMP:  55;                                

LAKEVIEW       MOCLDY    37  34  87 S7        30.44S WCI  32          
HERMISTON      PTCLDY    40  38  93 CALM      30.19F                  
6HR MIN TEMP:  40; 6HR MAX TEMP:  47;                                

PENDLETON      MOCLDY    55  46  71 SW15G22   30.19S                  
6HR MIN TEMP:  50; 6HR MAX TEMP:  58;                                

JOHN DAY       PTCLDY    47  39  74 SW9       30.30S                  
MEACHAM        CLOUDY    48  45  89 VRB3      30.22R                  
6HR MIN TEMP:  47; 6HR MAX TEMP:  50; 6HR PCP:  0.24;                

LA GRANDE      CLOUDY    52  43  71 E7        30.20F                  
6HR MIN TEMP:  52; 6HR MAX TEMP:  55; 6HR PCP:  0.01;                

BAKER CITY     PTCLDY    45  38  76 E10       30.22S                  
6HR MIN TEMP:  39; 6HR MAX TEMP:  51;                                

BURNS          PTCLDY    32  30  92 CALM      30.35R                  
6HR MIN TEMP:  31; 6HR MAX TEMP:  48;                                

ROME             N/A     44  34  67 S10       30.33F                  
6HR MIN TEMP:  41; 6HR MAX TEMP:  57;                                

ONTARIO        PTCLDY    34  32  92 CALM      30.28S                  
6HR MIN TEMP:  33; 6HR MAX TEMP:  43;                                

$$

Return to Home page


Western Regional Climate Center, wrcc@dri.edu